Location: Ehrke Reservoir
(40.0279°N, 99.6641°W)
Time: 12:45:17
(UTC+00:00)

BREEZE-M DEB (TANK) - Pass Details

Date: 20 January 2020
Orbit: 322 x 14857 km, 49.5° (Epoch: 16 February)

Event Time Altitude Azimuth Distance (km) Brightness Sun altitude
Rises 00:20:32 0° 229° (SW) 2,968 8.3 -7.6°
Reaches altitude 10° 00:23:17 10° 225° (SW) 1,533 6.5 -8.1°
Maximum altitude 00:26:00 57° 145° (SE) 396 2.2 -8.6°
Enters shadow 00:27:53 13° 66° (ENE) 1,079 3.9 -8.9°
